GOES 1 [-] 1 08366U 75100A 09183.41436739 -.00000251 00000-0 10000-3 0 8750 2 08366 14.3616 347.7090 0002379 251.5528 108.4177 1.00287933123103 GOES 2 [-] 1 10061U 77048A 09182.61928623 .00000043 00000-0 10000-3 0 8991 2 10061 14.6532 356.1727 0016629 251.4293 108.3874 0.99397419 61944 GOES 3 [P] 1 10953U 78062A 09182.51170541 -.00000130 00000-0 10000-3 0 5507 2 10953 14.3657 359.9799 0003012 10.3276 349.6768 1.00266121 66815 GOES 4 [-] 1 11964U 80074A 09180.89233460 -.00000290 00000-0 10000-3 0 1339 2 11964 14.7197 3.6835 0035599 295.0669 64.5597 0.99231014 66158 GOES 5 [-] 1 12472U 81049A 09182.47461310 -.00000269 00000-0 10000-3 0 1684 2 12472 13.6981 14.1771 0001277 184.3760 175.6209 1.00229767 60856 GOES 6 [-] 1 14050U 83041A 09182.48458769 -.00000277 00000-0 10000-3 0 1709 2 14050 13.3577 19.2700 0001109 37.3930 322.6098 1.00272871153954 GOES 7 [-] 1 17561U 87022A 09184.33631875 .00000049 00000-0 10000-3 0 197 2 17561 12.1380 37.0622 0002901 173.9940 14.9689 1.00285231 65079 GOES 8 [-] 1 23051U 94022A 09182.70374140 .00000016 00000-0 10000-3 0 8488 2 23051 5.7870 73.4373 0005616 166.5995 193.2374 0.98903341 62864 GOES 9 [P] 1 23581U 95025A 09182.99483435 -.00000265 00000-0 10000-3 0 1298 2 23581 5.3477 70.4277 0004996 322.2087 37.5665 0.98803258 51579 GOES 10 [+] 1 24786U 97019A 09183.22324924 -.00000286 00000-0 10000-3 0 9847 2 24786 3.6696 74.3876 0002051 33.2422 192.8036 1.00278673 44650 GOES 11 [+] 1 26352U 00022A 09184.59505234 .00000093 00000-0 10000-3 0 3852 2 26352 0.4407 262.8093 0002004 270.8476 186.7644 1.00268125 33574 GOES 12 [+] 1 26871U 01031A 09184.36829697 -.00000249 00000-0 10000-3 0 1229 2 26871 0.0685 98.5079 0004681 348.9556 251.9532 1.00271523 29168 GOES 13 [S] 1 29155U 06018A 09183.35560316 -.00000084 00000-0 10000-3 0 6610 2 29155 0.1237 235.7889 0001698 305.9399 121.2523 1.00271788 11407 GOES 14 [S] 1 35491U 09033A 09183.75273027 -.00000151 00000-0 00000+0 0 146 2 35491 0.9917 98.4519 0925756 172.1718 29.9088 1.17041962 71